Location: Akk?nlar
(36.8860°N, 31.0097°E)
Time: 06:26:25
(UTC+00:00)

Daily predictions for brighter satellites

Satellite Brightness Start Highest point End
(mag) Time Altitude Azimuth Time Altitude Azimuth Time Altitude Azimuth
ADEOS Rocket 3.9 14:52:21 10° N 15:00:04 77° WNW 15:07:47 10° SSW
CZ-4C R/B 4.0 15:04:10 10° N 15:07:43 52° WNW 15:11:14 10° SSW
Cosmos 372 Rocket 4.1 15:03:15 10° NNW 15:08:26 87° WSW 15:13:37 10° SSE
SL-16 R/B 3.3 15:04:29 10° SSE 15:08:57 24° ESE 15:13:25 10° NE
Cosmos 405 Rocket 2.8 15:05:06 10° N 15:08:59 58° E 15:12:54 10° SSE
USA 215 3.3 15:02:28 10° NE 15:09:02 85° SE 15:15:35 10° SW
Cosmos 389 Rocket 3.4 15:07:21 10° SSE 15:10:19 27° E 15:13:18 10° NNE
Cosmos 1867 4.1 15:05:20 10° S 15:10:20 40° ESE 15:15:23 10° NE
H-2A R/B 2.7 15:07:10 10° SSE 15:11:34 86° WSW 15:15:52 10° NNW
NOAA 6 4.2 15:07:00 10° SSE 15:12:10 83° WSW 15:17:20 10° NNW
PAYLOAD B 4.3 15:07:45 10° SSE 15:13:21 90° SW 15:18:57 10° NNW
Okean-O 4.5 15:16:09 10° E 15:17:25 11° ENE 15:18:40 10° NE
ATLAS 5 CENTAUR R/B 3.8 15:12:08 10° NW 15:17:57 47° WSW 15:24:30 10° S
Radarsat Rocket 4.1 15:12:51 10° SSE 15:18:44 89° ENE 15:25:06 10° NNW
Cosmos 2298 Rocket 4.0 15:14:13 10° NNW 15:19:31 70° ENE 15:24:48 10° SSE
Cosmos 2150 Rocket 3.9 15:15:48 10° NNW 15:20:56 66° ENE 15:26:02 10° SSE
AQUARIUS 4.2 15:16:35 10° SSE 15:21:00 61° ENE 15:25:26 10° N
Cosmos 1743 Rocket 3.7 15:16:38 10° N 15:21:07 82° W 15:25:32 10° S
COSMO-SKYMED 1 3.5 15:17:37 10° NE 15:21:19 27° E 15:25:00 10° SSE
Cosmos 1818 3.9 15:16:39 10° NNW 15:21:54 46° NE 15:27:07 10° SE
Cosmos 1689 Rocket 4.0 15:21:25 11° ENE 15:22:29 13° E 15:23:58 10° SE
Nadezhda 1 Rocket 4.2 15:18:02 10° S 15:24:20 81° W 15:30:44 10° N
Cosmos 2333 Rocket 4.3 15:20:11 10° WSW 15:24:38 23° WNW 15:29:05 10° N
Cosmos 1606 2.9 15:22:54 10° S 15:26:41 52° E 15:30:29 10° NNE
Okean O Rocket 1.5 15:24:04 10° SSE 15:28:23 76° ENE 15:32:44 10° N
Sich 1 3.4 15:26:17 10° N 15:30:27 42° E 15:34:34 10° SSE
Cosmos 1782 4.5 15:29:31 10° ESE 15:31:34 14° E 15:31:55 14° E
Cosmos 1125 Rocket 3.5 15:30:48 10° N 15:35:57 62° ENE 15:41:06 10° SSE
ISS -1.6 15:35:17 10° WNW 15:37:51 20° NNW 15:40:24 10° NNE
USA 267 4.2 15:34:22 13° E 15:39:07 29° NNE 15:44:30 10° NNW
Cosmos 1805 Rocket 3.5 15:36:46 10° N 15:41:15 80° E 15:45:40 10° S
Cosmos 2278 Rocket 2.2 15:35:52 10° NNW 15:41:34 87° WSW 15:47:14 10° SSE
Cosmos 1151 Rocket 3.6 15:38:10 10° SSE 15:42:04 35° E 15:45:58 10° NNE
Cosmos 2154 Rocket 4.3 15:36:43 10° N 15:43:02 74° W 15:49:21 10° S
Cosmos 1356 3.7 15:40:18 10° N 15:43:34 41° ENE 15:46:49 10° SSE
SAR-Lupe-4 3.8 15:41:54 10° NNE 15:45:22 46° E 15:48:49 10° S
Cosmos 962 Rocket 4.4 15:39:34 10° N 15:45:51 68° E 15:52:00 10° SSE
Cosmos 1666 Rocket 3.9 15:43:15 10° N 15:47:26 41° E 15:51:36 10° SSE
Cosmos 1328 Rocket 4.1 15:43:52 10° SSE 15:47:46 35° E 15:51:30 11° NNE
CZ-4B R/B 1.5 15:45:40 10° N 15:48:43 66° WNW 15:51:47 10° SSW
Lacrosse 5 rocket 1.2 15:47:07 10° SSW 15:50:43 51° SE 15:52:28 26° ENE
Cosmos 2341 Rocket 4.0 15:45:40 10° N 15:51:56 68° E 15:58:14 10° SSE
Meteor 1-25 Rocket 4.5 15:49:50 10° N 15:55:10 43° ENE 16:00:32 10° SSE
SL-24 R/B - RUBIN 2 4.1 15:50:34 10° NNW 15:56:44 83° ENE 16:02:07 10° SSE
SL-24 R/B 3.8 15:53:11 10° NNE 15:57:07 54° E 16:00:43 10° S
CZ-2D R/B 3.7 15:54:02 10° SE 15:57:33 38° ENE 16:01:06 10° N
CZ-4B R/B 4.2 15:53:44 10° S 15:58:55 48° W 16:04:03 10° NNW
CZ-4 R/B 3.1 16:02:21 17° NNE 16:02:21 17° NNE 16:03:31 10° NNE
ERS-2 2.8 15:57:03 10° N 16:00:39 56° WNW 16:04:13 10° SSW
SMAP 4.5 15:56:47 10° S 16:01:08 41° W 16:05:33 10° NNW
Meteor 1-4 Rocket 3.4 15:58:43 10° SSE 16:01:44 30° ESE 16:01:44 30° ESE
SAR-Lupe-1 3.9 15:59:11 12° NNE 16:02:31 77° ESE 16:06:06 10° S
Cosmos 2237 Rocket 3.6 15:59:53 10° SW 16:05:00 35° WNW 16:10:09 10° N
NOAA 11 4.4 16:00:21 10° S 16:05:44 71° WSW 16:11:11 10° NNW
Cosmos 2285 Rocket 4.3 16:00:48 10° N 16:06:48 41° ENE 16:12:43 10° SE
USA 81 4.0 16:02:29 10° N 16:07:44 64° E 16:12:57 10° SSE
SKYMED 2 3.6 16:05:09 10° N 16:09:30 81° WNW 16:13:50 10° SSW
H-2A R/B 3.0 16:11:48 28° NE 16:11:48 28° NE 16:15:28 10° N
SL-24 DEB 4.3 16:07:04 10° NNE 16:11:44 53° E 16:16:19 10° S
BREEZE-M DEB (TANK) 2.7 16:08:15 10° SW 16:12:30 38° SSE 16:12:56 36° SE
Cosmos 1939 Rocket 2.7 16:08:45 10° SSE 16:12:35 88° WSW 16:16:29 10° NNW
USA 281 3.3 16:06:31 10° SE 16:12:48 51° ENE 16:19:06 10° NNW
Cosmos 773 Rocket 3.9 16:10:28 10° S 16:15:39 67° ESE 16:19:04 22° NNE
SL-8 Rocket 3.9 16:10:07 10° N 16:16:22 80° E 16:22:39 10° S
Cosmos 864 Rocket 4.5 16:10:11 10° N 16:16:26 62° E 16:22:36 10° SSE
GENESIS II 4.1 16:12:34 10° NNW 16:16:31 84° WSW 16:19:50 13° SSE
Cosmos 2181 Rocket 4.1 16:10:48 10° S 16:17:15 84° W 16:23:41 10° N
Cosmos 1633 Rocket 2.9 16:13:51 10° N 16:18:14 77° E 16:22:34 10° S
X-37B 2.4 16:16:53 10° SSW 16:18:42 22° SSE 16:18:42 22° SSE
Cosmos 2369 Rocket 4.0 16:19:03 10° N 16:20:20 14° NNE 16:20:20 14° NNE
Cosmos 1959 Rocket 4.4 16:19:08 10° N 16:25:31 77° E 16:31:52 10° S
MOS 1 Rocket 3.5 16:24:28 15° NNE 16:29:01 69° E 16:34:23 10° S
SL-23 DEB 4.1 16:28:27 10° SW 16:32:04 78° NW 16:33:20 48° NE
ATLAS 3B CENTAUR R/B 3.3 16:36:57 10° SSW 16:37:02 10° SSW 16:37:02 10° SSW
Abrixas rocket 4.0 16:35:51 10° WNW 16:37:21 26° W 16:37:21 26° W
YAOGAN 1 4.0 16:44:13 26° N 16:44:13 26° N 16:46:08 10° N
SL-08 R/B 4.3 16:38:46 10° N 16:44:53 66° E 16:50:56 10° SSE
Cosmos 2297 3.6 16:43:00 10° NNW 16:48:43 87° ENE 16:51:56 27° SSE
ATLAS CENTAUR R/B 3.9 16:32:00 10° NW 16:50:53 63° NE 16:53:31 46° E
Meteor 1-14 Rocket 4.2 16:45:40 10° N 16:51:37 74° E 16:57:35 10° SSE
CZ-2C R/B 3.1 16:46:41 10° S 16:51:57 75° WSW 16:56:57 10° NNW
Cosmos 1943 Rocket 3.0 16:46:43 10° NNW 16:50:06 35° N 16:50:06 35° N
SL-16 R/B 3.3 16:47:27 10° SW 16:52:46 41° WNW 16:56:52 16° N
Okean-O 3.0 16:48:55 10° S 16:53:18 64° WSW 16:57:42 10° NNW
Cosmos 44 4.0 16:50:13 10° NNW 16:54:10 47° N 16:54:10 47° N
Cosmos 1515 Rocket 3.9 16:52:28 10° SSW 16:56:45 61° W 16:56:49 61° WNW
Cosmos 1538 Rocket 4.1 16:57:56 10° SSW 17:03:16 77° WNW 17:03:33 74° NW
Cosmos 1782 4.4 17:03:58 10° SW 17:07:31 32° WNW 17:07:36 32° WNW
BREEZE-M DEB (TANK) 3.9 17:01:08 10° WSW 17:09:34 55° NW 17:09:34 55° NW
BREEZE-M TANK 4.3 17:07:49 10° W 17:10:34 25° SW 17:10:34 25° SW
USA 267 3.1 17:21:45 85° NNW 17:21:45 85° NNW 17:28:07 10° NW
Lacrosse 5 rocket 4.3 17:27:44 10° WNW 17:28:08 12° WNW 17:28:08 12° WNW
H-2A R/B 4.1 17:52:26 24° WNW 17:52:26 24° WNW 17:54:58 10° NW
